Regional Weather Roundup
Issued by NWS

Home | Current Version | Previous Version | Text Only | Print | Product List | Glossary Off
Versions: 1 2 3 4 5 6 7 8 9 10 11 12 13 14 15 16 17 18 19 20 21 22 23 24 25 26 27 28 29 30 31 32 33 34 35 36 37 38 39 40 41 42 43 44 45 46 47 48 49 50

000
ASUS43 KIND 231109
RWRIN

WEATHER ROUNDUP FOR INDIANA
NATIONAL WEATHER SERVICE INDIANAPOLIS IN
700 AM EDT FRI JUN 23 2017

NOTE: "FAIR" INDICATES FEW OR NO CLOUDS BELOW 12,000 FEET WITH NO
SIGNIFICANT WEATHER AND/OR OBSTRUCTIONS TO VISIBILITY.

* - STATION DOES NOT REPORT WEATHER SUCH AS PRECIPITATION OR FOG.

+ - STATION NOT QUALITY CONTROLLED BY THE NATIONAL WEATHER SERVICE.
    USE DATA WITH CAUTION...ESPECIALLY DEWPOINT AND RELATIVE
    HUMIDITY OBSERVATIONS.

INZ001>003-010>013-019-020-231200-
NORTHWEST INDIANA

CITY           SKY/WX    TMP DP  RH WIND       PRES   REMARKS
GARY /AIRPORT/ RAIN      68  64  88 N17G29    29.69R VSB 1
KNOX *+        CLOUDY    72  72 100 W6        29.64F
LA PORTE +     DRIZZLE   72  71  97 W7        29.66F
MICHIGAN CITY+ RAIN      70  68  94 NW12G35   29.69R
MONTICELLO +   HVY RAIN  71  69  96 W20G30    29.68R
RENSSELAER +   CLOUDY    73  70  88 SW9       29.66F THUNDER
VALPARAISO     CLOUDY    75  73  93 W9        29.66F

$$

LMZ046-743>745-231200-
SOUTHERN LAKE MICHIGAN

STATION/POSITION TIME  TEMP    WIND        PRES    WAVE
                       AIR SEA DIR/SP/G            HT
                 (UTC) (F)     (DEG/KT/KT) (MB)    (FT)
BURNS HARBOR     1040   73     250/  9/ 13 1004.7S
MICHIGAN CITY    1040   72     230/ 16/ 17   N/A
5NW MICH CITY    1100   66 68  330/ 14/ 19   N/A     1

$$

INZ004-005-014>016-021>024-231200-
NORTH CENTRAL INDIANA

CITY           SKY/WX    TMP DP  RH WIND       PRES   REMARKS
ELKHART        DRIZZLE   72  70  94 SW9       29.64
GOSHEN         CLOUDY    72  69  90 SW8       29.65F
LOGANSPORT +   RAIN      70  70 100 W13G21    29.68S
PERU/GRISSOM   TSTM      72  72 100 W17       29.67F VSB 1/4
ROCHESTER +    CLOUDY    73  73 100 CALM      29.66F
SOUTH BEND     LGT RAIN  72  72 100 SW9       29.64F FOG
WARSAW +       CLOUDY    72  70  94 SW5       29.67F FOG

$$

INZ006>009-017-018-025>027-231200-
NORTHEAST INDIANA

CITY           SKY/WX    TMP DP  RH WIND       PRES   REMARKS
AUBURN +       LGT RAIN  72  70  94 SW6       29.68S
FORT WAYNE     TSTM      73  70  90 SW13      29.68F
HUNTINGTON +   TSTM      69  67  95 W12       29.70R
KENDALLVILLE + DRIZZLE   71  71 100 SW7       29.68S

$$

INZ028-029-035-036-043>045-051>053-231200-
WEST CENTRAL INDIANA

CITY           SKY/WX    TMP DP  RH WIND       PRES   REMARKS
CRAWFORDSVL +  CLOUDY    73  73 100 SW12G17   29.71S
GREENCASTLE +  CLOUDY    73  72  94 SW5       29.73S
LAFAYETTE      CLOUDY    74  74 100 SW8G17    29.67S
TERRE HAUTE    LGT RAIN  76  72  87 SW12      29.71S

$$

INZ030>032-037>040-046>048-054>057-064-065-231200-
CENTRAL INDIANA

CITY           SKY/WX    TMP DP  RH WIND       PRES   REMARKS
CP ATTERBURY + CLOUDY    73  70  88 SW6       29.74F
COLUMBUS       LGT RAIN  73  72  94 S12       29.74
FRANKFORT +    CLOUDY    77  74  88 SW13      29.71S
GREENWOOD *+   CLOUDY    76  71  85 SW7       29.74S
INDIANAPOLIS   CLOUDY    76  72  87 SW18      29.71S
-EAGLE CREEK   CLOUDY    75  72  90 SW8       29.71S
KOKOMO +       CLOUDY    75  72  90 SW16      29.69F
MT COMFORT *+  CLOUDY    75  72  88 SW13G18   29.72S
SHELBYVILLE    CLOUDY    77  71  82 SW13      29.72F
ZIONSVILLE +   CLOUDY    73  72  96 SW13      29.72S

$$

INZ033-034-041-042-049-050-058-059-231200-
EAST CENTRAL INDIANA

CITY           SKY/WX    TMP DP  RH WIND       PRES   REMARKS
MUNCIE         TSTM      73  70  90 W13G30    29.71F VSB 1/2
RICHMOND +     CLOUDY    72  70  94 SW12      29.76S

$$

INZ060-061-067>069-081>083-085>088-231200-
SOUTHWEST INDIANA

CITY           SKY/WX    TMP DP  RH WIND       PRES   REMARKS
EVANSVILLE     LGT RAIN  75  72  90 S8        29.75F
HUNTINGBURG *+ CLOUDY    75  73  93 S9        29.77S
WASHINGTON +   RAIN      74  73  94 SW7       29.74S

$$

INZ062-063-066-070>080-084-089>092-231200-
SOUTH CENTRAL AND SOUTHEAST INDIANA

CITY           SKY/WX    TMP DP  RH WIND       PRES   REMARKS
BLOOMINGTON    CLOUDY    75  71  87 SW10      29.74S
MADISON *+     CLOUDY    73  72  94 S10       29.80S

$$





USA.gov is the U.S. government's official web portal to all federal, state and local government web resources and services.